#timestamp,LO_Frequency,Hit,StdDev 
1593122415.8,286046999.2,N
1593122435.6,286046999.1,N
1593122455.5,286046998.9,N
1593122475.3,286046997.3,N
1593122495.1,286046997.9,N
1593122515.9,286046997.3,N
1593122535.7,286046997.3,N
1593122555.6,286046996.5,N
1593122575.4,286046997.9,N
1593122595.2,286046997.8,N
1593122615.1,286046997.4,N
1593122616.0,286046997.4,N
1593122635.8,286046996.6,Y
1593122655.6,286047000.4,P
1593122675.5,286047000.9,N
1593122695.3,286047000.5,N
1593122715.2,286047000.5,N
1593122735.9,286047000.1,N
1593122755.7,286047002.7,N
1593122775.6,286047000.1,N
1593122795.4,286047000.4,N
1593122815.2,286047002.8,N
1593122835.1,286047000.2,N
1593122836.0,286047000.2,N
1593122855.8,286047000.4,N
1593122875.7,286047000.7,N
1593122895.5,286047000.3,N
1593122915.3,286046999.9,N
1593122935.2,286047000.6,N
1593122955.0,286047001.0,N
1593122955.9,286047001.0,N
1593122975.8,286047002.7,N
1593122995.6,286047000.3,N
1593123015.4,286046998.5,N
1593123035.3,286046998.7,N
1593123055.1,286046996.6,N
1593123075.8,286046998.4,N
1593123095.7,286046998.2,N
1593123115.5,286047000.9,N
1593123135.4,286047000.0,N
1593123155.2,286047000.0,N
1593123175.0,286047000.2,N
1593123175.9,286047000.2,N
1593123195.8,286047000.2,N
1593123215.6,286046999.9,N
1593123235.4,286047000.9,N
1593123255.3,286046998.3,N
1593123275.1,286047001.2,N
1593123295.9,286047000.7,N
1593123315.7,286047000.8,N
1593123335.5,286046999.4,N
1593123355.4,286046998.9,N
1593123375.2,286046999.6,N
1593123395.0,286046998.9,N
1593123395.9,286046998.9,N
1593123415.8,286046996.9,N
1593123435.6,286046999.3,N
1593123455.5,286046999.0,N
1593123475.3,286047000.4,N
1593123495.1,286047000.4,N
1593123515.9,286047001.1,N
1593123535.7,286046998.6,N
1593123555.5,286047001.1,N
1593123575.4,286046999.1,N
1593123595.2,286046996.6,N
1593123615.1,286046996.8,N
1593123616.0,286046996.8,N
1593123635.8,286046997.6,N
1593123655.6,286046995.8,Y
1593123675.5,286046996.6,P
1593123695.3,286046999.4,N
1593123715.1,286046999.3,N
1593123735.9,286046998.6,N
1593123755.7,286046998.5,N
1593123775.6,286047000.8,N
1593123795.4,286046998.8,N
1593123815.2,286046997.0,N
1593123835.1,286046996.6,N
1593123836.0,286046996.6,N
1593123855.8,286046996.6,N
1593123875.6,286046998.9,N
1593123895.5,286046999.4,N
1593123915.3,286046996.7,N
1593123935.2,286046996.7,N
1593123955.9,286046995.5,Y
1593123975.7,286046997.2,P
1593123995.6,286046997.2,P
1593124015.4,286046998.7,P
1593124035.3,286046999.1,N
1593124055.1,286046997.3,Y
1593124056.0,286046997.3,P
1593124075.8,286047000.6,N
1593124095.7,286046999.8,N
1593124115.5,286047000.9,N
1593124135.3,286047001.1,N
1593124155.2,286047000.9,N
1593124175.0,286046999.0,N
1593124175.9,286046999.0,N
1593124195.8,286046998.4,N
1593124215.6,286047000.9,N
1593124235.4,286046999.7,N
1593124255.3,286047001.5,N
1593124275.1,286047004.4,Y
1593124295.9,286047001.7,P
1593124315.7,286047001.5,N
1593124335.5,286047001.4,N
1593124355.4,286047004.2,Y
1593124375.2,286047002.4,P
1593124395.0,286046999.9,N
1593124395.9,286046999.9,N
1593124415.8,286046999.7,N
1593124435.6,286047002.5,N
1593124455.5,286047001.6,N
1593124475.3,286047002.7,N
1593124495.1,286047000.1,N
1593124515.9,286046999.7,N
1593124535.7,286047001.4,N
1593124555.5,286047003.2,N
1593124575.4,286047004.0,Y
1593124595.2,286046999.7,P
1593124615.1,286047002.4,P
1593124616.0,286047002.4,N
1593124635.8,286047001.7,N
1593124655.6,286047001.9,N
1593124675.5,286047000.0,N
1593124695.3,286047002.8,N
1593124715.1,286047000.2,N
1593124735.9,286047000.0,N
1593124755.7,286047000.5,N
1593124775.6,286047000.5,N
1593124795.4,286047000.2,N
1593124815.2,286047002.4,N
1593124835.1,286047000.2,N
1593124836.0,286047000.2,N
1593124855.8,286047000.5,N
1593124875.6,286046999.7,N
1593124895.5,286047002.6,N
1593124915.3,286047001.6,N
1593124935.2,286047001.3,N
1593124955.9,286047003.4,Y
1593124975.7,286047002.0,P
1593124995.6,286047001.5,P
1593125015.4,286047002.0,P
1593125035.2,286047001.9,Y
1593125055.1,286046998.7,P
1593125056.0,286046998.7,N
1593125075.8,286047000.5,N
1593125095.7,286046999.0,N
1593125115.5,286046996.7,N
1593125135.3,286046997.0,N
1593125155.2,286046999.3,N
1593125175.0,286046998.3,N
1593125175.9,286046998.3,N
1593125195.7,286047000.8,N
1593125215.6,286046998.1,N
1593125235.4,286046998.4,N
1593125255.3,286046999.0,N
1593125275.1,286046999.2,N
1593125276.0,286046999.2,N
1593125295.8,286046997.0,N
1593125315.7,286046995.1,Y
1593125335.5,286046997.9,P
1593125355.3,286046996.5,P
1593125375.2,286046998.9,N
1593125395.0,286047001.1,N
1593125395.9,286047001.1,N
1593125415.8,286047000.0,N
1593125435.6,286047002.4,N
1593125455.4,286047001.9,N
1593125475.3,286047001.7,N
1593125495.1,286047001.4,N
1593125515.8,286047001.5,N
1593125535.7,286047004.4,N
1593125555.5,286047003.6,N
1593125575.4,286047003.4,N
1593125595.2,286047006.0,N
1593125615.0,286047003.2,N
1593125615.9,286047003.2,N
1593125635.8,286047004.0,N
1593125655.6,286047001.7,N
1593125675.4,286047001.6,N
1593125695.3,286047001.6,N
1593125715.1,286047004.0,N
1593125735.9,286047001.5,N
1593125755.7,286047002.1,N
1593125775.5,286047001.8,N
1593125795.4,286047004.3,N
1593125815.2,286047005.5,N
1593125835.0,286047004.7,N
1593125835.9,286047004.7,N
1593125855.8,286047004.9,N
1593125875.6,286047004.7,N
1593125895.5,286047003.3,N
1593125915.3,286047003.7,N
1593125935.1,286047004.7,Y
1593125955.9,286047001.7,P
1593125975.7,286047002.7,P
1593125995.5,286047002.5,P
